FlightSource - Aviation Photo Database

World Wide Airport Lookup


Search by ICAO
Or
Search by City

FlightSource.ca - Aviation Photo Database - Chautauqua Co Jamestown Airport Information
Airport Identification
Name: Chautauqua Co Jamestown Airport
ICAO: KJHW
IATA:
Airport Location
City: Jamestown
Region: NY
Country: United States
Continent: North America
Latitude: 42.1534
Longitude: -79.258
Airport Information
Type: Medium Airport
Elevation: 1723 Feet ASL
Flight Status: KJHW
More Info: KJHW
Airport Weather    
Metar: KJHW 240156Z AUTO 22008KT 10SM OVC038 M01/M05 A2997 RMK AO2 SLP174 T10061050 FZRANO
TAF:


Advertisement